Dewpoint
64 69 76 74 75 73 74 74 75 75 75 75 74 74 73 74 74 74 74 73 73 74 74 74 74 73 73 73 73 73 74 73 73 74 73 74 74 74 73 73 72 71 74
64 69 76 75 75 74 74 74 74 75 75 75 75 74 73 74 74 74 74 74 72 74 73 73 74 73 74 74 74 73 73 73 73 72 73 74 73 73 73 72 71 72 73
63 69 72 76 75 74 74 75 74 74 74 74 74 74 73 73 73 73 74 74 71 74 73 74 73 73 73 73 72 72 72 72 72 71 71 70 70 72 72 72 73 74 73
63 66 68 76 75 74 74 75 75 75 74 74 74 73 73 74 74 74 72 71 73 74 73 74 72 72 74 73 72 72 72 72 72 72 72 71 66 71 72 73 73 73 73
61 65 70 77 76 74 75 75 74 74 73 74 74 73 74 74 73 72 73 74 73 74 74 73 74 73 71 72 73 72 71 71 71 71 72 71 70 71 72 72 72 72 72
61 68 75 76 75 75 75 75 74 74 74 74 73 74 74 74 72 73 74 73 74 74 73 74 73 73 72 72 73 72 71 72 72 72 73 72 70 71 73 72 71 72 72
68 70 72 76 76 75 74 75 74 73 74 74 73 75 74 74 73 73 74 74 73 73 72 72 73 73 73 72 71 71 70 72 72 72 72 72 72 72 73 71 71 72 71
68 68 70 76 76 75 74 75 74 75 74 73 74 74 75 74 74 73 73 74 73 73 72 73 73 72 72 71 71 71 71 71 71 72 71 71 72 71 70 70 71 71 72
61 67 71 72 74 75 74 75 75 75 74 74 74 75 74 75 74 73 74 74 74 73 72 72 72 72 72 72 71 70 70 72 73 72 70 72 71 71 72 72 71 70 70
61 63 68 70 71 73 71 75 75 74 74 75 74 74 75 74 74 74 75 74 73 72 72 72 72 72 72 73 72 72 71 71 71 71 71 71 70 69 69 71 70 70 70
61 62 65 67 71 74 73 73 75 73 73 74 74 75 74 74 73 73 74 74 73 73 73 73 73 73 73 73 73 73 71 70 72 71 71 72 68 69 69 69 70 69 69
58 62 66 67 69 70 68 74 75 71 71 74 72 74 74 74 75 72 74 75 74 74 73 73 74 73 73 70 70 72 70 66 71 72 71 72 69 69 69 69 69 70 69
59 62 65 67 70 68 70 71 71 71 69 73 74 72 73 72 73 71 72 72 73 74 71 72 71 71 71 71 72 70 69 70 70 71 71 74 71 70 71 70 70 71 69
61 64 63 67 66 66 68 67 70 71 68 71 71 73 73 71 70 68 71 70 72 73 72 73 75 71 73 73 72 72 71 74 72 70 71 74 74 72 72 72 71 70 70
59 62 60 66 72 73 72 69 70 71 67 66 69 70 70 70 73 73 73 74 72 72 72 73 73 74 73 73 73 75 73 73 74 72 73 74 74 73 73 72 71 71 70
60 61 62 67 71 69 72 75 70 68 68 69 69 70 75 71 76 73 75 72 73 74 74 73 73 75 76 74 74 73 73 73 75 75 73 74 75 74 74 73 72 72 71
60 62 62 67 68 71 71 73 72 68 66 69 73 73 75 76 76 73 75 73 74 73 73 74 75 74 75 74 73 71 73 74 72 74 74 75 74 75 74 74 74 73 73
60 64 65 63 66 68 67 72 70 68 69 70 72 74 74 75 77 77 75 75 74 75 73 73 75 75 75 74 71 72 70 72 74 76 74 74 74 74 75 75 75 75 74
62 65 68 68 66 68 72 70 70 71 71 71 72 73 75 76 77 77 75 74 74 74 74 76 74 73 72 75 73 68 67 68 70 71 70 71 74 74 74 75 75 75 75
63 66 69 67 71 70 70 71 70 70 73 72 76 74 76 74 76 77 75 75 75 76 75 77 76 76 75 75 73 68 66 67 70 69 70 69 70 74 74 74 75 74 75
65 66 68 69 75 69 70 69 69 72 73 74 71 75 74 77 74 76 76 76 78 76 77 76 77 75 75 76 74 67 67 69 68 71 70 69 69 70 72 74 75 75 74
63 68 69 69 74 72 72 72 71 71 71 71 73 73 74 77 77 76 78 77 76 76 77 77 77 75 74 76 73 72 69 69 70 69 71 71 70 69 68 68 74 75 75
64 68 70 70 73 73 74 72 74 75 73 71 72 73 74 77 77 78 77 78 77 78 75 77 77 76 74 75 76 73 69 68 70 71 70 69 70 70 68 69 73 74 74
64 66 70 71 72 73 75 73 75 71 71 71 72 73 74 75 76 77 78 78 77 78 77 77 75 77 76 73 76 73 75 74 70 68 69 70 70 68 68 69 71 73 74
62 65 69 72 73 72 73 76 73 75 70 74 73 74 75 76 76 75 78 79 79 77 77 78 78 79 78 77 76 75 74 74 74 72 69 68 71 70 71 70 70 73 74
60 64 67 72 74 74 74 74 76 73 74 72 73 73 71 72 73 76 77 79 80 77 78 78 79 79 79 77 77 76 74 73 72 72 69 69 68 69 70 71 71 73 75
Lifted_Index
-0 -1 -2 -3 -3 -3 -3 -3 -3 -3 -4 -4 -3 -3 -3 -3 -3 -3 -3 -3 -3 -4 -4 -5 -5 -5 -5 -5 -5 -5 -5 -5 -5 -4 -4 -4 -4 -4 -4 -4 -5 -5 -6
-0 -1 -2 -3 -3 -3 -3 -3 -3 -3 -4 -4 -3 -3 -3 -3 -3 -3 -3 -3 -3 -4 -4 -5 -5 -5 -5 -5 -5 -5 -4 -4 -4 -4 -4 -4 -4 -4 -4 -4 -4 -5 -5
-0 -1 -2 -3 -3 -3 -3 -3 -3 -3 -3 -4 -3 -3 -3 -3 -3 -3 -3 -3 -3 -4 -4 -4 -5 -5 -5 -5 -4 -4 -4 -4 -4 -4 -4 -3 -3 -3 -4 -4 -5 -5 -5
-0 -1 -2 -3 -3 -3 -3 -3 -3 -3 -3 -3 -3 -3 -3 -3 -3 -3 -2 -2 -3 -4 -4 -4 -4 -4 -4 -4 -4 -4 -4 -4 -4 -4 -3 -3 -3 -3 -4 -4 -5 -5 -5
-0 -1 -3 -3 -3 -3 -3 -3 -3 -3 -3 -3 -3 -3 -3 -3 -2 -2 -2 -3 -3 -4 -4 -4 -4 -4 -3 -4 -4 -4 -4 -4 -4 -3 -3 -3 -3 -3 -4 -4 -4 -5 -5
-2 -2 -3 -4 -4 -3 -3 -3 -3 -3 -3 -3 -3 -3 -3 -3 -2 -2 -3 -3 -3 -3 -3 -3 -4 -3 -3 -3 -3 -3 -3 -3 -3 -3 -2 -2 -3 -3 -4 -4 -4 -4 -4
-3 -3 -4 -4 -4 -3 -3 -3 -3 -3 -3 -3 -3 -3 -3 -3 -2 -2 -3 -3 -3 -3 -3 -3 -3 -3 -3 -3 -3 -3 -3 -3 -2 -2 -2 -2 -2 -3 -3 -3 -4 -4 -4
-3 -3 -3 -4 -4 -4 -3 -3 -3 -3 -3 -3 -3 -3 -3 -3 -3 -3 -3 -3 -3 -3 -3 -3 -3 -3 -3 -3 -3 -3 -3 -2 -2 -1 -1 -1 -2 -2 -2 -3 -3 -3 -4
-2 -3 -3 -4 -4 -4 -3 -3 -3 -3 -3 -3 -3 -3 -3 -3 -3 -3 -3 -3 -3 -3 -3 -3 -3 -3 -3 -3 -3 -3 -3 -2 -2 -1 -0 -1 -1 -1 -1 -1 -2 -2 -3
-2 -2 -3 -3 -4 -4 -3 -3 -3 -3 -3 -3 -3 -3 -3 -3 -3 -3 -3 -3 -3 -3 -3 -3 -3 -3 -3 -3 -3 -2 -2 -2 -2 -1 -1 -1 -0 -0 -0 -0 -1 -1 -2
-1 -2 -2 -3 -3 -3 -3 -3 -3 -3 -2 -3 -3 -3 -3 -3 -3 -3 -3 -3 -3 -3 -3 -3 -3 -3 -3 -3 -2 -2 -2 -2 -2 -1 -1 -1 -0 0 0 0 0 -0 -1
-1 -2 -3 -3 -3 -3 -3 -3 -3 -3 -2 -3 -3 -3 -3 -3 -3 -3 -3 -3 -3 -3 -3 -3 -3 -3 -3 -2 -2 -2 -1 -1 -2 -2 -2 -1 -1 0 0 0 0 0 0
-2 -2 -2 -3 -3 -3 -3 -3 -3 -3 -2 -3 -3 -3 -3 -3 -3 -3 -3 -3 -3 -3 -3 -3 -3 -3 -3 -3 -2 -2 -2 -2 -2 -2 -2 -2 -1 -1 -0 -0 0 0 0
-2 -2 -2 -2 -2 -2 -2 -3 -3 -3 -2 -2 -3 -3 -3 -3 -3 -3 -3 -3 -3 -3 -3 -3 -3 -3 -3 -3 -3 -3 -3 -3 -3 -3 -3 -2 -2 -2 -1 -1 -0 -0 -0
-2 -2 -2 -2 -2 -2 -2 -2 -3 -3 -2 -2 -2 -2 -2 -3 -3 -3 -3 -3 -3 -3 -3 -3 -3 -3 -3 -4 -4 -4 -4 -4 -4 -4 -4 -3 -3 -3 -2 -2 -1 -1 -0
-1 -1 -2 -2 -3 -3 -3 -3 -3 -3 -2 -2 -3 -3 -3 -3 -3 -3 -4 -4 -3 -3 -3 -3 -3 -4 -4 -4 -5 -5 -5 -5 -5 -5 -4 -4 -4 -3 -3 -2 -2 -1 -1
-1 -1 -2 -2 -3 -3 -3 -3 -3 -3 -2 -3 -3 -4 -4 -4 -4 -4 -4 -4 -4 -3 -3 -3 -3 -4 -5 -5 -5 -4 -4 -5 -5 -5 -5 -4 -4 -4 -4 -3 -3 -2 -2
-1 -2 -2 -2 -3 -3 -3 -3 -3 -3 -3 -3 -4 -4 -4 -4 -4 -4 -4 -4 -4 -3 -3 -3 -4 -4 -5 -5 -4 -3 -3 -3 -4 -5 -5 -5 -4 -4 -4 -4 -4 -3 -3
-2 -2 -2 -2 -2 -2 -3 -3 -3 -3 -3 -3 -4 -5 -5 -5 -5 -5 -4 -4 -4 -4 -4 -4 -5 -5 -5 -5 -5 -3 -2 -1 -2 -3 -4 -4 -4 -5 -5 -4 -4 -4 -4
-2 -2 -2 -2 -2 -3 -3 -3 -3 -3 -4 -4 -4 -5 -5 -5 -5 -5 -5 -4 -5 -5 -5 -5 -5 -6 -6 -6 -5 -3 -2 -1 -2 -2 -3 -3 -4 -5 -5 -5 -5 -4 -4
-2 -2 -2 -2 -3 -3 -3 -4 -4 -4 -4 -4 -4 -4 -5 -5 -5 -5 -5 -5 -6 -6 -6 -6 -6 -6 -6 -6 -5 -4 -3 -3 -3 -3 -3 -3 -4 -4 -5 -5 -5 -5 -4
-2 -3 -2 -2 -3 -3 -4 -4 -4 -4 -4 -4 -4 -4 -5 -5 -6 -6 -6 -6 -6 -6 -6 -6 -6 -6 -6 -6 -6 -5 -4 -4 -4 -4 -4 -4 -4 -4 -4 -5 -5 -5 -4
-2 -3 -3 -3 -3 -4 -4 -4 -4 -4 -4 -4 -4 -5 -5 -6 -6 -6 -7 -6 -6 -6 -6 -6 -7 -7 -7 -7 -6 -6 -5 -5 -5 -5 -4 -4 -4 -4 -4 -4 -5 -5 -5
-2 -3 -3 -3 -3 -4 -4 -4 -4 -4 -4 -4 -4 -4 -5 -5 -6 -7 -7 -7 -7 -7 -7 -7 -7 -7 -7 -7 -7 -7 -6 -6 -6 -6 -5 -5 -5 -5 -4 -5 -5 -6 -6
-2 -3 -4 -4 -4 -4 -4 -5 -5 -5 -4 -4 -4 -4 -4 -5 -5 -6 -7 -7 -8 -7 -7 -7 -8 -8 -8 -8 -8 -7 -7 -6 -6 -6 -6 -5 -5 -5 -5 -5 -5 -6 -6
-2 -3 -4 -4 -5 -5 -5 -5 -5 -5 -5 -4 -4 -4 -4 -4 -5 -6 -6 -7 -8 -8 -7 -8 -8 -9 -9 -9 -8 -8 -7 -7 -7 -7 -6 -5 -5 -5 -5 -5 -5 -6 -6